Location: *
(57.8420°S, 159.8600°W)
Time: 13:00:51
(UTC+00:00)

Cosmos 1354 Rocket - Pass Details

Date: 18 May 2021
Orbit: 763 x 784 km, 74.0° (Epoch: 22 June)

Event Time Altitude Azimuth Distance (km) Brightness Sun altitude
Rises 03:16:35 0° 211° (SSW) 3,297 7.3 -6.5°
Reaches altitude 10° 03:19:00 10° 212° (SSW) 2,361 6.6 -6.8°
Maximum altitude 03:24:21 74° 296° (WNW) 819 4.4 -7.5°
Drops below altitude 10° 03:29:37 10° 19° (NNE) 2,324 6.6 -8.1°
Sets 03:31:59 0° 21° (NNE) 3,242 7.3 -8.4°
